Time,TemperatureF,DewpointF,PressureIn,WindDirection,WindDirectionDegrees,WindSpeedMPH,WindSpeedGustMPH,Humidity,HourlyPrecipIn,Conditions,Clouds,dailyrainin,SoftwareType,DateUTC
2013-03-26 00:00:00,33.1,27.9,29.74,NW,315,3.4,5.4,81,0.00,,,0.00,WUHU21623XXSP,2013-03-26 04:00:00,
2013-03-26 00:05:00,33.3,28.0,29.74,NW,315,2.5,5.4,81,0.00,,,0.00,WUHU21623XXSP,2013-03-26 04:05:00,
2013-03-26 00:10:00,33.4,28.2,29.74,NW,315,3.8,5.4,81,0.00,,,0.00,WUHU21623XXSP,2013-03-26 04:10:00,
2013-03-26 00:15:00,33.4,28.2,29.74,NW,315,2.7,4.9,81,0.00,,,0.00,WUHU21623XXSP,2013-03-26 04:15:00,
2013-03-26 00:20:00,33.3,28.0,29.74,NW,315,2.2,5.8,81,0.00,,,0.00,WUHU21623XXSP,2013-03-26 04:20:00,
2013-03-26 00:25:00,33.3,28.0,29.74,NW,315,4.3,6.3,81,0.00,,,0.00,WUHU21623XXSP,2013-03-26 04:25:00,
2013-03-26 00:30:00,33.1,27.9,29.74,NW,315,0.0,6.3,81,0.00,,,0.00,WUHU21623XXSP,2013-03-26 04:30:00,
2013-03-26 00:35:00,32.7,27.5,29.74,NW,315,1.8,3.6,81,0.00,,,0.00,WUHU21623XXSP,2013-03-26 04:35:00,
2013-03-26 00:40:00,32.5,27.7,29.74,NW,315,2.2,3.4,82,0.00,,,0.00,WUHU21623XXSP,2013-03-26 04:40:00,
2013-03-26 00:45:00,32.2,27.3,29.74,WNW,292,3.4,3.4,82,0.00,,,0.00,WUHU21623XXSP,2013-03-26 04:45:00,
2013-03-26 00:50:00,31.8,27.0,29.74,WNW,292,1.1,4.0,82,0.00,,,0.00,WUHU21623XXSP,2013-03-26 04:50:00,
2013-03-26 00:55:00,31.6,26.8,29.74,WNW,292,0.0,4.7,82,0.00,,,0.00,WUHU21623XXSP,2013-03-26 04:55:00,
2013-03-26 01:00:00,31.3,26.5,29.74,WNW,292,0.0,4.7,82,0.00,,,0.00,WUHU21623XXSP,2013-03-26 05:00:00,
2013-03-26 01:05:00,31.3,26.5,29.74,WNW,292,0.0,1.3,82,0.00,,,0.00,WUHU21623XXSP,2013-03-26 05:05:00,
2013-03-26 01:10:00,30.6,25.7,29.74,WNW,292,3.6,3.6,82,0.00,,,0.00,WUHU21623XXSP,2013-03-26 05:10:00,
2013-03-26 01:15:00,30.6,26.0,29.74,WNW,292,1.8,4.5,83,0.00,,,0.00,WUHU21623XXSP,2013-03-26 05:15:00,
2013-03-26 01:20:00,30.7,26.2,29.74,West,270,2.9,4.5,83,0.00,,,0.00,WUHU21623XXSP,2013-03-26 05:20:00,
2013-03-26 01:26:00,30.9,26.7,29.74,West,270,2.5,4.3,84,0.00,,,0.00,WUHU21623XXSP,2013-03-26 05:26:00,
2013-03-26 01:31:00,31.1,26.9,29.74,West,270,0.9,4.3,84,0.00,,,0.00,WUHU21623XXSP,2013-03-26 05:31:00,
2013-03-26 01:36:00,31.3,27.0,29.74,West,270,2.5,5.4,84,0.00,,,0.00,WUHU21623XXSP,2013-03-26 05:36:00,
2013-03-26 01:41:00,31.3,27.3,29.74,West,270,0.0,5.4,85,0.00,,,0.00,WUHU21623XXSP,2013-03-26 05:41:00,
2013-03-26 01:46:00,31.3,27.0,29.74,West,270,0.0,5.1,84,0.00,,,0.00,WUHU21623XXSP,2013-03-26 05:46:00,
2013-03-26 01:51:00,31.3,27.0,29.74,West,270,2.5,4.5,84,0.00,,,0.00,WUHU21623XXSP,2013-03-26 05:51:00,
2013-03-26 01:56:00,31.3,27.0,29.75,West,270,1.6,5.1,84,0.00,,,0.00,WUHU21623XXSP,2013-03-26 05:56:00,
2013-03-26 02:01:00,31.3,27.0,29.75,West,270,2.7,5.1,84,0.00,,,0.00,WUHU21623XXSP,2013-03-26 06:01:00,
2013-03-26 02:06:00,31.3,27.0,29.75,West,270,3.4,4.5,84,0.00,,,0.00,WUHU21623XXSP,2013-03-26 06:06:00,
2013-03-26 02:11:00,31.3,27.0,29.75,SW,225,1.6,5.8,84,0.00,,,0.00,WUHU21623XXSP,2013-03-26 06:11:00,
2013-03-26 02:16:00,31.3,27.0,29.75,WSW,247,3.6,5.8,84,0.00,,,0.00,WUHU21623XXSP,2013-03-26 06:16:00,
2013-03-26 02:21:00,31.3,27.0,29.75,WSW,247,3.8,4.5,84,0.00,,,0.00,WUHU21623XXSP,2013-03-26 06:21:00,
2013-03-26 02:26:00,31.3,27.0,29.75,West,270,0.0,4.5,84,0.00,,,0.00,WUHU21623XXSP,2013-03-26 06:26:00,
2013-03-26 02:31:00,31.6,27.4,29.75,West,270,0.0,3.8,84,0.00,,,0.00,WUHU21623XXSP,2013-03-26 06:31:00,
2013-03-26 02:36:00,31.8,27.6,29.75,WSW,247,0.0,3.8,84,0.00,,,0.00,WUHU21623XXSP,2013-03-26 06:36:00,
2013-03-26 02:41:00,31.8,27.6,29.75,WSW,247,1.8,6.5,84,0.00,,,0.00,WUHU21623XXSP,2013-03-26 06:41:00,
2013-03-26 02:46:00,31.8,27.6,29.75,WSW,247,2.9,6.5,84,0.00,,,0.00,WUHU21623XXSP,2013-03-26 06:46:00,
2013-03-26 02:51:00,31.8,27.6,29.75,WSW,247,4.9,6.3,84,0.00,,,0.00,WUHU21623XXSP,2013-03-26 06:51:00,
2013-03-26 02:56:00,31.8,27.6,29.75,WSW,247,3.4,5.6,84,0.00,,,0.00,WUHU21623XXSP,2013-03-26 06:56:00,
2013-03-26 03:02:00,31.8,27.6,29.75,WSW,247,2.5,5.6,84,0.00,,,0.00,WUHU21623XXSP,2013-03-26 07:02:00,
2013-03-26 03:10:00,31.8,27.6,29.75,WSW,247,1.8,1.8,84,0.00,,,0.00,WUHU21623XXSP,2013-03-26 07:10:00,
2013-03-26 03:15:00,31.6,27.4,29.75,West,270,1.3,4.9,84,0.00,,,0.00,WUHU21623XXSP,2013-03-26 07:15:00,
2013-03-26 03:20:00,31.6,27.4,29.75,West,270,0.0,4.9,84,0.00,,,0.00,WUHU21623XXSP,2013-03-26 07:20:00,
2013-03-26 03:25:00,31.3,27.0,29.75,West,270,1.1,1.1,84,0.00,,,0.00,WUHU21623XXSP,2013-03-26 07:25:00,
2013-03-26 03:30:00,31.1,26.9,29.75,West,270,1.1,3.4,84,0.00,,,0.00,WUHU21623XXSP,2013-03-26 07:30:00,
2013-03-26 03:35:00,31.1,26.9,29.75,West,270,0.0,3.4,84,0.00,,,0.00,WUHU21623XXSP,2013-03-26 07:35:00,
2013-03-26 03:40:00,31.1,26.9,29.75,West,270,0.0,4.7,84,0.00,,,0.00,WUHU21623XXSP,2013-03-26 07:40:00,
2013-03-26 03:45:00,30.9,26.7,29.75,West,270,0.0,4.7,84,0.00,,,0.00,WUHU21623XXSP,2013-03-26 07:45:00,
2013-03-26 03:50:00,30.9,26.7,29.75,West,270,0.0,0.0,84,0.00,,,0.00,WUHU21623XXSP,2013-03-26 07:50:00,
2013-03-26 03:55:00,30.7,26.5,29.75,West,270,0.0,0.0,84,0.00,,,0.00,WUHU21623XXSP,2013-03-26 07:55:00,
2013-03-26 04:00:00,30.7,26.5,29.75,West,270,0.0,0.0,84,0.00,,,0.00,WUHU21623XXSP,2013-03-26 08:00:00,
2013-03-26 04:05:00,30.7,26.5,29.75,West,270,0.0,0.0,84,0.00,,,0.00,WUHU21623XXSP,2013-03-26 08:05:00,
2013-03-26 04:10:00,30.7,26.5,29.75,West,270,0.0,0.0,84,0.00,,,0.00,WUHU21623XXSP,2013-03-26 08:10:00,
2013-03-26 04:15:00,30.0,25.8,29.75,West,270,0.0,0.0,84,0.00,,,0.00,WUHU21623XXSP,2013-03-26 08:15:00,
2013-03-26 04:20:00,30.2,26.0,29.75,West,270,0.0,0.0,84,0.00,,,0.00,WUHU21623XXSP,2013-03-26 08:20:00,
2013-03-26 04:25:00,30.4,26.1,29.75,West,270,0.0,0.0,84,0.00,,,0.00,WUHU21623XXSP,2013-03-26 08:25:00,
2013-03-26 04:30:00,30.6,26.6,29.75,West,270,0.0,0.0,85,0.00,,,0.00,WUHU21623XXSP,2013-03-26 08:30:00,
2013-03-26 04:35:00,30.6,26.6,29.75,West,270,0.7,3.1,85,0.00,,,0.00,WUHU21623XXSP,2013-03-26 08:35:00,
2013-03-26 04:40:00,30.7,26.8,29.75,WSW,247,0.0,3.8,85,0.00,,,0.00,WUHU21623XXSP,2013-03-26 08:40:00,
2013-03-26 04:45:00,30.7,26.8,29.75,West,270,0.0,3.8,85,0.00,,,0.00,WUHU21623XXSP,2013-03-26 08:45:00,
2013-03-26 04:50:00,30.7,26.8,29.75,West,270,0.0,0.0,85,0.00,,,0.00,WUHU21623XXSP,2013-03-26 08:50:00,
2013-03-26 04:55:00,30.7,26.8,29.75,West,270,0.0,0.0,85,0.00,,,0.00,WUHU21623XXSP,2013-03-26 08:55:00,
2013-03-26 05:00:00,30.9,27.0,29.75,West,270,0.9,3.1,85,0.00,,,0.00,WUHU21623XXSP,2013-03-26 09:00:00,
2013-03-26 05:05:00,30.9,27.0,29.75,West,270,0.9,3.1,85,0.00,,,0.00,WUHU21623XXSP,2013-03-26 09:05:00,
2013-03-26 05:10:00,31.1,27.1,29.76,West,270,0.0,0.9,85,0.00,,,0.00,WUHU21623XXSP,2013-03-26 09:10:00,
2013-03-26 05:15:00,31.3,27.3,29.76,West,270,1.6,3.6,85,0.00,,,0.00,WUHU21623XXSP,2013-03-26 09:15:00,
2013-03-26 05:20:00,31.3,27.3,29.76,West,270,0.0,3.6,85,0.00,,,0.00,WUHU21623XXSP,2013-03-26 09:20:00,
2013-03-26 05:25:00,31.3,27.3,29.76,West,270,0.0,0.9,85,0.00,,,0.00,WUHU21623XXSP,2013-03-26 09:25:00,
2013-03-26 05:30:00,31.3,27.3,29.76,West,270,0.0,0.0,85,0.00,,,0.00,WUHU21623XXSP,2013-03-26 09:30:00,
2013-03-26 05:35:00,31.3,27.3,29.76,West,270,1.3,2.0,85,0.00,,,0.00,WUHU21623XXSP,2013-03-26 09:35:00,
2013-03-26 05:40:00,31.3,27.3,29.76,West,270,0.0,3.8,85,0.00,,,0.00,WUHU21623XXSP,2013-03-26 09:40:00,
2013-03-26 05:45:00,31.3,27.3,29.76,West,270,0.0,4.0,85,0.00,,,0.00,WUHU21623XXSP,2013-03-26 09:45:00,
2013-03-26 05:50:00,31.3,27.3,29.76,West,270,0.0,4.0,85,0.00,,,0.00,WUHU21623XXSP,2013-03-26 09:50:00,
2013-03-26 05:55:00,31.1,27.1,29.77,West,270,0.0,0.0,85,0.00,,,0.00,WUHU21623XXSP,2013-03-26 09:55:00,
2013-03-26 06:01:00,31.1,27.1,29.76,West,270,0.0,2.9,85,0.00,,,0.00,WUHU21623XXSP,2013-03-26 10:01:00,
2013-03-26 06:05:00,31.3,27.3,29.77,West,270,0.7,2.9,85,0.00,,,0.00,WUHU21623XXSP,2013-03-26 10:05:00,
2013-03-26 06:11:00,31.3,27.3,29.77,West,270,2.9,3.6,85,0.00,,,0.00,WUHU21623XXSP,2013-03-26 10:11:00,
2013-03-26 06:16:00,31.6,27.7,29.77,West,270,3.4,4.3,85,0.00,,,0.00,WUHU21623XXSP,2013-03-26 10:16:00,
2013-03-26 06:21:00,31.8,27.9,29.77,West,270,2.9,6.3,85,0.00,,,0.00,WUHU21623XXSP,2013-03-26 10:21:00,
2013-03-26 06:26:00,32.2,28.5,29.77,West,270,3.8,6.3,86,0.00,,,0.00,WUHU21623XXSP,2013-03-26 10:26:00,
2013-03-26 06:31:00,32.4,28.7,29.77,West,270,3.1,5.6,86,0.00,,,0.00,WUHU21623XXSP,2013-03-26 10:31:00,
2013-03-26 06:36:00,32.7,29.0,29.78,WNW,292,0.0,4.7,86,0.00,,,0.00,WUHU21623XXSP,2013-03-26 10:36:00,
2013-03-26 06:41:00,32.7,29.0,29.78,WNW,292,1.8,4.7,86,0.00,,,0.00,WUHU21623XXSP,2013-03-26 10:41:00,
2013-03-26 06:46:00,32.7,29.0,29.78,WNW,292,0.0,4.0,86,0.00,,,0.00,WUHU21623XXSP,2013-03-26 10:46:00,
2013-03-26 06:51:00,32.7,29.0,29.78,WNW,292,0.0,2.7,86,0.00,,,0.00,WUHU21623XXSP,2013-03-26 10:51:00,
2013-03-26 06:56:00,32.7,28.7,29.78,WNW,292,0.7,2.9,85,0.00,,,0.00,WUHU21623XXSP,2013-03-26 10:56:00,
2013-03-26 07:01:00,32.7,28.7,29.78,WNW,292,2.0,3.6,85,0.00,,,0.00,WUHU21623XXSP,2013-03-26 11:01:00,
2013-03-26 07:06:00,32.7,28.7,29.78,West,270,1.8,3.6,85,0.00,,,0.00,WUHU21623XXSP,2013-03-26 11:06:00,
2013-03-26 07:12:00,32.7,28.7,29.78,West,270,1.8,3.8,85,0.00,,,0.00,WUHU21623XXSP,2013-03-26 11:12:00,
2013-03-26 07:17:00,32.9,28.9,29.78,West,270,1.1,3.8,85,0.00,,,0.00,WUHU21623XXSP,2013-03-26 11:17:00,
2013-03-26 07:22:00,33.1,29.0,29.79,West,270,1.8,3.8,85,0.00,,,0.00,WUHU21623XXSP,2013-03-26 11:22:00,
2013-03-26 07:27:00,33.1,29.0,29.79,WNW,292,0.9,3.4,85,0.00,,,0.00,WUHU21623XXSP,2013-03-26 11:27:00,
2013-03-26 07:32:00,33.1,29.0,29.79,WNW,292,2.5,3.6,85,0.00,,,0.00,WUHU21623XXSP,2013-03-26 11:32:00,
2013-03-26 07:37:00,33.1,29.0,29.80,WNW,292,0.9,3.6,85,0.00,,,0.00,WUHU21623XXSP,2013-03-26 11:37:00,
2013-03-26 07:42:00,33.1,29.0,29.80,West,270,2.5,4.3,85,0.00,,,0.00,WUHU21623XXSP,2013-03-26 11:42:00,
2013-03-26 07:47:00,33.4,29.3,29.80,WNW,292,1.6,4.9,85,0.00,,,0.00,WUHU21623XXSP,2013-03-26 11:47:00,
2013-03-26 07:52:00,33.8,29.7,29.80,WNW,292,3.8,5.1,85,0.00,,,0.00,WUHU21623XXSP,2013-03-26 11:52:00,
2013-03-26 07:57:00,34.0,29.6,29.80,WNW,292,2.7,5.1,84,0.00,,,0.00,WUHU21623XXSP,2013-03-26 11:57:00,
2013-03-26 08:02:00,34.2,29.7,29.80,WNW,292,1.8,4.7,84,0.00,,,0.00,WUHU21623XXSP,2013-03-26 12:02:00,
2013-03-26 08:07:00,34.3,29.9,29.80,WNW,292,4.9,4.9,84,0.00,,,0.00,WUHU21623XXSP,2013-03-26 12:07:00,
2013-03-26 08:12:00,34.5,29.8,29.80,West,270,3.8,6.0,83,0.00,,,0.00,WUHU21623XXSP,2013-03-26 12:12:00,
2013-03-26 08:17:00,34.9,30.2,29.81,West,270,4.5,6.0,83,0.00,,,0.00,WUHU21623XXSP,2013-03-26 12:17:00,
2013-03-26 08:22:00,35.2,30.2,29.81,West,270,5.4,5.4,82,0.00,,,0.00,WUHU21623XXSP,2013-03-26 12:22:00,
2013-03-26 08:27:00,35.2,30.2,29.81,West,270,2.5,5.4,82,0.00,,,0.00,WUHU21623XXSP,2013-03-26 12:27:00,
2013-03-26 08:32:00,35.4,30.4,29.80,West,270,0.0,5.1,82,0.00,,,0.00,WUHU21623XXSP,2013-03-26 12:32:00,
2013-03-26 08:37:00,35.8,30.5,29.81,West,270,1.1,4.0,81,0.00,,,0.00,WUHU21623XXSP,2013-03-26 12:37:00,
2013-03-26 08:42:00,36.0,30.7,29.81,West,270,0.0,4.9,81,0.00,,,0.00,WUHU21623XXSP,2013-03-26 12:42:00,
2013-03-26 08:47:00,36.1,30.8,29.81,West,270,0.0,4.9,81,0.00,,,0.00,WUHU21623XXSP,2013-03-26 12:47:00,
2013-03-26 08:52:00,36.3,30.7,29.81,West,270,0.0,5.1,80,0.00,,,0.00,WUHU21623XXSP,2013-03-26 12:52:00,
2013-03-26 08:57:00,36.5,30.9,29.81,WNW,292,0.0,5.1,80,0.00,,,0.00,WUHU21623XXSP,2013-03-26 12:57:00,
2013-03-26 09:03:00,36.7,30.8,29.82,WNW,292,3.4,5.6,79,0.00,,,0.00,WUHU21623XXSP,2013-03-26 13:03:00,
2013-03-26 09:08:00,37.0,31.1,29.82,NW,315,5.4,7.4,79,0.00,,,0.00,WUHU21623XXSP,2013-03-26 13:08:00,
2013-03-26 09:13:00,37.2,31.0,29.82,WNW,292,3.8,7.4,78,0.00,,,0.00,WUHU21623XXSP,2013-03-26 13:13:00,
2013-03-26 09:18:00,37.6,31.3,29.82,WNW,292,7.6,7.6,78,0.00,,,0.00,WUHU21623XXSP,2013-03-26 13:18:00,
2013-03-26 09:23:00,37.6,31.0,29.82,WNW,292,5.8,7.6,77,0.00,,,0.00,WUHU21623XXSP,2013-03-26 13:23:00,
2013-03-26 09:28:00,37.9,31.4,29.83,NW,315,3.6,6.7,77,0.00,,,0.00,WUHU21623XXSP,2013-03-26 13:28:00,
2013-03-26 09:33:00,37.9,31.4,29.83,WNW,292,5.4,8.1,77,0.00,,,0.00,WUHU21623XXSP,2013-03-26 13:33:00,
2013-03-26 09:38:00,37.9,31.0,29.83,WNW,292,7.4,8.5,76,0.00,,,0.00,WUHU21623XXSP,2013-03-26 13:38:00,
2013-03-26 09:43:00,38.1,31.2,29.83,NW,315,4.9,8.5,76,0.00,,,0.00,WUHU21623XXSP,2013-03-26 13:43:00,
2013-03-26 09:48:00,38.5,31.6,29.83,NW,315,8.9,8.9,76,0.00,,,0.00,WUHU21623XXSP,2013-03-26 13:48:00,
2013-03-26 09:53:00,38.7,31.4,29.83,NNW,337,9.6,11.0,75,0.00,,,0.00,WUHU21623XXSP,2013-03-26 13:53:00,
2013-03-26 09:58:00,39.0,31.7,29.83,NW,315,4.5,11.0,75,0.00,,,0.00,WUHU21623XXSP,2013-03-26 13:58:00,
2013-03-26 10:03:00,39.4,31.7,29.83,NW,315,7.4,10.1,74,0.00,,,0.00,WUHU21623XXSP,2013-03-26 14:03:00,
2013-03-26 10:08:00,39.6,31.9,29.83,NW,315,3.4,10.7,74,0.00,,,0.00,WUHU21623XXSP,2013-03-26 14:08:00,
2013-03-26 10:13:00,39.9,31.6,29.83,NNW,337,7.6,13.0,72,0.00,,,0.00,WUHU21623XXSP,2013-03-26 14:13:00,
2013-03-26 10:18:00,40.1,31.8,29.84,NW,315,11.9,15.2,72,0.00,,,0.00,WUHU21623XXSP,2013-03-26 14:18:00,
2013-03-26 10:23:00,40.3,31.6,29.84,NW,315,10.7,15.2,71,0.00,,,0.00,WUHU21623XXSP,2013-03-26 14:23:00,
2013-03-26 10:28:00,40.8,32.1,29.84,NW,315,12.3,13.2,71,0.00,,,0.00,WUHU21623XXSP,2013-03-26 14:28:00,
2013-03-26 10:33:00,40.8,31.4,29.84,North,0,11.9,14.1,69,0.00,,,0.00,WUHU21623XXSP,2013-03-26 14:33:00,
2013-03-26 10:38:00,40.8,31.1,29.84,WNW,292,10.3,15.9,68,0.00,,,0.00,WUHU21623XXSP,2013-03-26 14:38:00,
2013-03-26 10:43:00,41.0,31.6,29.85,NW,315,8.1,15.9,69,0.00,,,0.00,WUHU21623XXSP,2013-03-26 14:43:00,
2013-03-26 10:48:00,41.2,31.4,29.85,North,0,7.8,13.6,68,0.00,,,0.00,WUHU21623XXSP,2013-03-26 14:48:00,
2013-03-26 10:53:00,41.5,31.0,29.84,NNW,337,13.0,16.1,66,0.00,,,0.00,WUHU21623XXSP,2013-03-26 14:53:00,
2013-03-26 10:58:00,41.7,31.2,29.85,WNW,292,6.9,16.1,66,0.00,,,0.00,WUHU21623XXSP,2013-03-26 14:58:00,
2013-03-26 11:03:00,42.1,31.5,29.85,NW,315,9.6,15.7,66,0.00,,,0.00,WUHU21623XXSP,2013-03-26 15:03:00,
2013-03-26 11:08:00,41.9,30.6,29.85,NNW,337,12.5,16.3,64,0.00,,,0.00,WUHU21623XXSP,2013-03-26 15:08:00,
2013-03-26 11:13:00,42.1,31.1,29.85,NNW,337,6.9,16.3,65,0.00,,,0.00,WUHU21623XXSP,2013-03-26 15:13:00,
2013-03-26 11:18:00,42.6,31.6,29.85,NW,315,9.6,15.0,65,0.00,,,0.00,WUHU21623XXSP,2013-03-26 15:18:00,
2013-03-26 11:23:00,43.0,31.6,29.85,NNW,337,10.5,16.1,64,0.00,,,0.00,WUHU21623XXSP,2013-03-26 15:23:00,
2013-03-26 11:28:00,42.6,30.8,29.85,North,0,10.7,17.9,63,0.00,,,0.00,WUHU21623XXSP,2013-03-26 15:28:00,
2013-03-26 11:33:00,42.4,30.3,29.85,North,0,7.2,17.9,62,0.00,,,0.00,WUHU21623XXSP,2013-03-26 15:33:00,
2013-03-26 11:38:00,43.0,31.2,29.86,NW,315,12.3,13.6,63,0.00,,,0.00,WUHU21623XXSP,2013-03-26 15:38:00,
2013-03-26 11:43:00,43.5,31.7,29.86,NW,315,8.1,15.9,63,0.00,,,0.00,WUHU21623XXSP,2013-03-26 15:43:00,
2013-03-26 11:48:00,43.5,31.3,29.86,NNE,22,6.7,15.9,62,0.00,,,0.00,WUHU21623XXSP,2013-03-26 15:48:00,
2013-03-26 11:53:00,43.3,30.8,29.86,NW,315,8.9,15.0,61,0.00,,,0.00,WUHU21623XXSP,2013-03-26 15:53:00,
2013-03-26 11:58:00,43.3,31.2,29.86,NW,315,6.9,15.0,62,0.00,,,0.00,WUHU21623XXSP,2013-03-26 15:58:00,
2013-03-26 12:03:00,43.9,31.7,29.86,North,0,8.1,14.1,62,0.00,,,0.00,WUHU21623XXSP,2013-03-26 16:03:00,
2013-03-26 12:08:00,44.4,31.8,29.86,NW,315,7.4,13.4,61,0.00,,,0.00,WUHU21623XXSP,2013-03-26 16:08:00,
2013-03-26 12:13:00,44.2,31.3,29.86,WNW,292,5.6,13.4,60,0.00,,,0.00,WUHU21623XXSP,2013-03-26 16:13:00,
2013-03-26 12:18:00,45.0,32.0,29.86,NNW,337,7.2,13.2,60,0.00,,,0.00,WUHU21623XXSP,2013-03-26 16:18:00,
2013-03-26 12:23:00,45.0,31.5,29.86,NW,315,10.5,14.1,59,0.00,,,0.00,WUHU21623XXSP,2013-03-26 16:23:00,
2013-03-26 12:28:00,45.1,31.2,29.86,West,270,8.1,14.1,58,0.00,,,0.00,WUHU21623XXSP,2013-03-26 16:28:00,
2013-03-26 12:33:00,45.5,31.1,29.86,NW,315,3.6,13.0,57,0.00,,,0.00,WUHU21623XXSP,2013-03-26 16:33:00,
2013-03-26 12:38:00,46.0,31.6,29.86,WNW,292,6.7,11.9,57,0.00,,,0.00,WUHU21623XXSP,2013-03-26 16:38:00,
2013-03-26 12:43:00,46.2,31.7,29.86,NNW,337,3.1,12.8,57,0.00,,,0.00,WUHU21623XXSP,2013-03-26 16:43:00,
2013-03-26 12:48:00,46.0,31.1,29.86,NNW,337,9.4,15.4,56,0.00,,,0.00,WUHU21623XXSP,2013-03-26 16:48:00,
2013-03-26 12:53:00,46.2,32.2,29.86,NW,315,11.0,15.4,58,0.00,,,0.00,WUHU21623XXSP,2013-03-26 16:53:00,
2013-03-26 12:58:00,46.6,32.1,29.86,WNW,292,8.3,13.2,57,0.00,,,0.00,WUHU21623XXSP,2013-03-26 16:58:00,
2013-03-26 13:04:00,46.6,31.6,29.86,NW,315,6.0,13.6,56,0.00,,,0.00,WUHU21623XXSP,2013-03-26 17:04:00,
2013-03-26 13:09:00,47.1,31.7,29.86,NNW,337,12.5,15.4,55,0.00,,,0.00,WUHU21623XXSP,2013-03-26 17:09:00,
2013-03-26 13:14:00,47.3,31.9,29.86,NW,315,13.4,17.0,55,0.00,,,0.00,WUHU21623XXSP,2013-03-26 17:14:00,
2013-03-26 13:19:00,47.1,30.8,29.86,NW,315,10.1,17.0,53,0.00,,,0.00,WUHU21623XXSP,2013-03-26 17:19:00,
2013-03-26 13:24:00,47.3,31.4,29.86,NW,315,15.2,18.3,53,0.00,,,0.00,WUHU21623XXSP,2013-03-26 17:24:00,
2013-03-26 13:29:00,47.3,31.9,29.86,NW,315,8.5,18.3,55,0.00,,,0.00,WUHU21623XXSP,2013-03-26 17:29:00,
2013-03-26 13:34:00,47.5,30.6,29.86,NNW,337,7.4,14.3,52,0.00,,,0.00,WUHU21623XXSP,2013-03-26 17:34:00,
2013-03-26 13:39:00,47.1,31.4,29.86,NW,315,8.3,17.7,53,0.00,,,0.00,WUHU21623XXSP,2013-03-26 17:39:00,
2013-03-26 13:44:00,47.3,31.4,29.86,North,0,6.9,17.7,54,0.00,,,0.00,WUHU21623XXSP,2013-03-26 17:44:00,
2013-03-26 13:49:00,47.5,31.1,29.86,NNW,337,8.7,17.2,53,0.00,,,0.00,WUHU21623XXSP,2013-03-26 17:49:00,
2013-03-26 13:54:00,47.3,29.6,29.86,North,0,12.8,18.8,50,0.00,,,0.00,WUHU21623XXSP,2013-03-26 17:54:00,
2013-03-26 13:59:00,46.2,29.5,29.86,North,0,6.9,18.8,52,0.00,,,0.00,WUHU21623XXSP,2013-03-26 17:59:00,
2013-03-26 14:04:00,46.2,29.5,29.86,North,0,11.2,16.6,52,0.00,,,0.00,WUHU21623XXSP,2013-03-26 18:04:00,
2013-03-26 14:09:00,46.8,29.5,29.86,NNW,337,9.6,16.6,51,0.00,,,0.00,WUHU21623XXSP,2013-03-26 18:09:00,
2013-03-26 14:14:00,46.6,29.4,29.86,WNW,292,8.5,16.3,51,0.00,,,0.00,WUHU21623XXSP,2013-03-26 18:14:00,
2013-03-26 14:19:00,46.9,30.1,29.86,NW,315,11.9,16.3,52,0.00,,,0.00,WUHU21623XXSP,2013-03-26 18:19:00,
2013-03-26 14:24:00,47.1,30.8,29.86,West,270,6.9,16.3,53,0.00,,,0.00,WUHU21623XXSP,2013-03-26 18:24:00,
2013-03-26 14:29:00,47.5,30.2,29.86,NW,315,7.2,15.4,51,0.00,,,0.00,WUHU21623XXSP,2013-03-26 18:29:00,
2013-03-26 14:34:00,47.7,30.8,29.86,NW,315,11.2,18.3,52,0.00,,,0.00,WUHU21623XXSP,2013-03-26 18:34:00,
2013-03-26 14:39:00,48.0,29.7,29.86,WNW,292,11.6,18.3,49,0.00,,,0.00,WUHU21623XXSP,2013-03-26 18:39:00,
2013-03-26 14:44:00,48.6,30.7,29.86,WNW,292,13.0,17.9,50,0.00,,,0.00,WUHU21623XXSP,2013-03-26 18:44:00,
2013-03-26 14:49:00,48.7,30.4,29.86,NNW,337,8.7,15.7,49,0.00,,,0.00,WUHU21623XXSP,2013-03-26 18:49:00,
2013-03-26 14:54:00,49.6,31.3,29.86,West,270,11.2,14.3,49,0.00,,,0.00,WUHU21623XXSP,2013-03-26 18:54:00,
2013-03-26 14:59:00,49.3,29.8,29.86,West,270,7.2,16.1,47,0.00,,,0.00,WUHU21623XXSP,2013-03-26 18:59:00,
2013-03-26 15:04:00,49.6,30.1,29.86,NW,315,10.3,16.1,47,0.00,,,0.00,WUHU21623XXSP,2013-03-26 19:04:00,
2013-03-26 15:09:00,49.3,30.9,29.86,WNW,292,10.5,14.5,49,0.00,,,0.00,WUHU21623XXSP,2013-03-26 19:09:00,
2013-03-26 15:14:00,49.6,29.6,29.86,NNW,337,11.6,14.5,46,0.00,,,0.00,WUHU21623XXSP,2013-03-26 19:14:00,
2013-03-26 15:19:00,49.3,29.2,29.86,NW,315,13.6,17.0,46,0.00,,,0.00,WUHU21623XXSP,2013-03-26 19:19:00,
2013-03-26 15:24:00,49.3,28.7,29.86,WNW,292,13.2,17.0,45,0.00,,,0.00,WUHU21623XXSP,2013-03-26 19:24:00,
2013-03-26 15:29:00,49.6,30.1,29.86,NW,315,10.5,15.9,47,0.00,,,0.00,WUHU21623XXSP,2013-03-26 19:29:00,
2013-03-26 15:34:00,49.3,29.2,29.86,NW,315,11.4,13.6,46,0.00,,,0.00,WUHU21623XXSP,2013-03-26 19:34:00,
2013-03-26 15:39:00,49.3,28.7,29.86,WSW,247,7.8,16.8,45,0.00,,,0.00,WUHU21623XXSP,2013-03-26 19:39:00,
2013-03-26 15:44:00,49.5,29.4,29.86,WSW,247,15.2,17.4,47,0.00,,,0.00,WUHU21623XXSP,2013-03-26 19:44:00,
2013-03-26 15:49:00,50.2,29.6,29.86,WSW,247,16.8,17.4,45,0.00,,,0.00,WUHU21623XXSP,2013-03-26 19:49:00,
2013-03-26 15:54:00,49.8,28.7,29.86,WSW,247,6.5,17.2,44,0.00,,,0.00,WUHU21623XXSP,2013-03-26 19:54:00,
2013-03-26 15:59:00,50.2,28.4,29.86,WSW,247,14.5,17.0,43,0.00,,,0.00,WUHU21623XXSP,2013-03-26 19:59:00,
2013-03-26 16:04:00,50.7,28.9,29.86,WSW,247,11.6,17.0,43,0.00,,,0.00,WUHU21623XXSP,2013-03-26 20:04:00,
2013-03-26 16:09:00,50.5,28.2,29.86,NW,315,3.1,15.4,42,0.00,,,0.00,WUHU21623XXSP,2013-03-26 20:09:00,
2013-03-26 16:14:00,50.4,28.0,29.86,WSW,247,11.6,15.4,42,0.00,,,0.00,WUHU21623XXSP,2013-03-26 20:14:00,
2013-03-26 16:19:00,50.9,28.0,29.86,WSW,247,19.0,19.0,41,0.00,,,0.00,WUHU21623XXSP,2013-03-26 20:19:00,
2013-03-26 16:24:00,50.2,27.9,29.86,WSW,247,8.9,19.0,42,0.00,,,0.00,WUHU21623XXSP,2013-03-26 20:24:00,
2013-03-26 16:29:00,50.5,27.1,29.86,WSW,247,10.3,13.4,40,0.00,,,0.00,WUHU21623XXSP,2013-03-26 20:29:00,
2013-03-26 16:34:00,49.8,27.0,29.86,NNW,337,2.7,11.2,41,0.00,,,0.00,WUHU21623XXSP,2013-03-26 20:34:00,
2013-03-26 16:39:00,49.8,27.5,29.86,North,0,7.6,10.5,42,0.00,,,0.00,WUHU21623XXSP,2013-03-26 20:39:00,
2013-03-26 16:44:00,49.6,26.3,29.86,NNE,22,7.6,8.3,40,0.00,,,0.00,WUHU21623XXSP,2013-03-26 20:44:00,
2013-03-26 16:49:00,48.0,24.8,29.86,NNE,22,10.1,11.4,40,0.00,,,0.00,WUHU21623XXSP,2013-03-26 20:49:00,
2013-03-26 16:54:00,47.3,25.3,29.86,North,0,5.4,11.4,42,0.00,,,0.00,WUHU21623XXSP,2013-03-26 20:54:00,
2013-03-26 17:00:00,47.1,25.1,29.86,NNW,337,8.5,12.3,42,0.00,,,0.00,WUHU21623XXSP,2013-03-26 21:00:00,
2013-03-26 17:05:00,47.1,24.5,29.86,NNW,337,7.6,13.6,41,0.00,,,0.00,WUHU21623XXSP,2013-03-26 21:05:00,
2013-03-26 17:10:00,47.1,25.1,29.86,NNW,337,5.4,13.6,43,0.00,,,0.00,WUHU21623XXSP,2013-03-26 21:10:00,
2013-03-26 17:15:00,46.9,25.5,29.86,NNW,337,9.6,15.0,43,0.00,,,0.00,WUHU21623XXSP,2013-03-26 21:15:00,
2013-03-26 17:20:00,47.1,25.6,29.86,WNW,292,11.6,15.0,43,0.00,,,0.00,WUHU21623XXSP,2013-03-26 21:20:00,
2013-03-26 17:25:00,46.9,24.9,29.86,NW,315,11.6,16.1,42,0.00,,,0.00,WUHU21623XXSP,2013-03-26 21:25:00,
2013-03-26 17:30:00,46.6,24.6,29.86,WSW,247,8.1,16.1,42,0.00,,,0.00,WUHU21623XXSP,2013-03-26 21:30:00,
2013-03-26 17:35:00,48.0,25.9,29.86,NNW,337,15.7,15.7,42,0.00,,,0.00,WUHU21623XXSP,2013-03-26 21:35:00,
2013-03-26 17:40:00,47.3,24.7,29.87,WSW,247,8.1,17.9,41,0.00,,,0.00,WUHU21623XXSP,2013-03-26 21:40:00,
2013-03-26 17:45:00,48.7,25.8,29.86,WSW,247,9.2,17.9,40,0.00,,,0.00,WUHU21623XXSP,2013-03-26 21:45:00,
2013-03-26 17:50:00,48.0,24.8,29.87,WSW,247,11.2,19.7,40,0.00,,,0.00,WUHU21623XXSP,2013-03-26 21:50:00,
2013-03-26 17:55:00,48.4,26.2,29.87,WSW,247,17.7,19.7,42,0.00,,,0.00,WUHU21623XXSP,2013-03-26 21:55:00,
2013-03-26 18:00:00,47.8,24.7,29.87,NW,315,8.5,18.6,40,0.00,,,0.00,WUHU21623XXSP,2013-03-26 22:00:00,
2013-03-26 18:05:00,47.7,24.5,29.87,WSW,247,11.4,21.5,40,0.00,,,0.00,WUHU21623XXSP,2013-03-26 22:05:00,
2013-03-26 18:10:00,48.0,24.8,29.87,WSW,247,9.4,21.5,40,0.00,,,0.00,WUHU21623XXSP,2013-03-26 22:10:00,
2013-03-26 18:15:00,48.6,25.3,29.87,WSW,247,5.4,21.0,40,0.00,,,0.00,WUHU21623XXSP,2013-03-26 22:15:00,
2013-03-26 18:20:00,48.0,24.8,29.88,NW,315,16.3,16.3,40,0.00,,,0.00,WUHU21623XXSP,2013-03-26 22:20:00,
2013-03-26 18:25:00,46.2,23.7,29.88,NNW,337,10.3,16.3,41,0.00,,,0.00,WUHU21623XXSP,2013-03-26 22:25:00,
2013-03-26 18:30:00,45.5,24.2,29.88,NW,315,4.9,15.7,43,0.00,,,0.00,WUHU21623XXSP,2013-03-26 22:30:00,
2013-03-26 18:35:00,45.0,24.2,29.88,NW,315,6.9,14.3,44,0.00,,,0.00,WUHU21623XXSP,2013-03-26 22:35:00,
2013-03-26 18:40:00,44.6,24.4,29.88,NW,315,5.6,11.6,45,0.00,,,0.00,WUHU21623XXSP,2013-03-26 22:40:00,
2013-03-26 18:45:00,44.2,24.7,29.88,NW,315,7.6,11.4,46,0.00,,,0.00,WUHU21623XXSP,2013-03-26 22:45:00,
2013-03-26 18:50:00,44.1,24.5,29.88,NW,315,6.3,10.7,46,0.00,,,0.00,WUHU21623XXSP,2013-03-26 22:50:00,
2013-03-26 18:55:00,43.5,24.5,29.89,WNW,292,4.9,10.7,47,0.00,,,0.00,WUHU21623XXSP,2013-03-26 22:55:00,
2013-03-26 19:00:00,43.3,24.9,29.89,NW,315,6.5,9.8,48,0.00,,,0.00,WUHU21623XXSP,2013-03-26 23:00:00,
2013-03-26 19:05:00,43.2,25.3,29.89,NW,315,4.5,9.6,49,0.00,,,0.00,WUHU21623XXSP,2013-03-26 23:05:00,
2013-03-26 19:10:00,43.0,25.1,29.89,NW,315,9.2,9.6,49,0.00,,,0.00,WUHU21623XXSP,2013-03-26 23:10:00,
2013-03-26 19:15:00,43.0,25.1,29.90,NW,315,4.7,12.8,49,0.00,,,0.00,WUHU21623XXSP,2013-03-26 23:15:00,
2013-03-26 19:20:00,43.0,25.1,29.89,NW,315,9.6,12.8,49,0.00,,,0.00,WUHU21623XXSP,2013-03-26 23:20:00,
2013-03-26 19:25:00,42.8,25.0,29.89,NW,315,9.2,12.3,49,0.00,,,0.00,WUHU21623XXSP,2013-03-26 23:25:00,
2013-03-26 19:30:00,42.6,24.8,29.90,NW,315,10.7,11.4,49,0.00,,,0.00,WUHU21623XXSP,2013-03-26 23:30:00,
2013-03-26 19:35:00,42.4,25.2,29.90,NW,315,9.4,11.4,50,0.00,,,0.00,WUHU21623XXSP,2013-03-26 23:35:00,
2013-03-26 19:40:00,42.4,25.2,29.90,WNW,292,6.9,12.3,50,0.00,,,0.00,WUHU21623XXSP,2013-03-26 23:40:00,
2013-03-26 19:45:00,42.4,25.2,29.90,NW,315,6.0,12.3,50,0.00,,,0.00,WUHU21623XXSP,2013-03-26 23:45:00,
2013-03-26 19:50:00,42.4,25.2,29.90,WNW,292,2.7,8.7,50,0.00,,,0.00,WUHU21623XXSP,2013-03-26 23:50:00,
2013-03-26 19:55:00,42.1,25.2,29.90,WNW,292,7.2,8.7,51,0.00,,,0.00,WUHU21623XXSP,2013-03-26 23:55:00,
2013-03-26 20:00:00,42.1,25.7,29.90,NW,315,5.4,7.4,52,0.00,,,0.00,WUHU21623XXSP,2013-03-27 00:00:00,
2013-03-26 20:05:00,41.9,25.5,29.91,NW,315,8.5,10.7,52,0.00,,,0.00,WUHU21623XXSP,2013-03-27 00:05:00,
2013-03-26 20:10:00,41.9,25.1,29.91,NW,315,7.8,11.4,51,0.00,,,0.00,WUHU21623XXSP,2013-03-27 00:10:00,
2013-03-26 20:15:00,42.1,25.2,29.91,NW,315,4.9,12.8,51,0.00,,,0.00,WUHU21623XXSP,2013-03-27 00:15:00,
2013-03-26 20:20:00,41.9,25.1,29.91,NW,315,5.6,12.8,51,0.00,,,0.00,WUHU21623XXSP,2013-03-27 00:20:00,
2013-03-26 20:25:00,41.7,24.9,29.91,NNW,337,5.1,9.4,51,0.00,,,0.00,WUHU21623XXSP,2013-03-27 00:25:00,
2013-03-26 20:30:00,41.5,24.7,29.91,NW,315,7.2,8.1,51,0.00,,,0.00,WUHU21623XXSP,2013-03-27 00:30:00,
2013-03-26 20:35:00,41.5,24.7,29.92,NW,315,6.3,7.6,51,0.00,,,0.00,WUHU21623XXSP,2013-03-27 00:35:00,
2013-03-26 20:40:00,41.5,25.1,29.92,NW,315,6.7,7.6,52,0.00,,,0.00,WUHU21623XXSP,2013-03-27 00:40:00,
2013-03-26 20:45:00,41.5,25.1,29.92,WNW,292,3.8,7.6,52,0.00,,,0.00,WUHU21623XXSP,2013-03-27 00:45:00,
2013-03-26 20:50:00,41.5,25.1,29.93,West,270,3.1,7.2,52,0.00,,,0.00,WUHU21623XXSP,2013-03-27 00:50:00,
2013-03-26 20:55:00,41.5,25.6,29.92,West,270,5.8,8.1,53,0.00,,,0.00,WUHU21623XXSP,2013-03-27 00:55:00,
2013-03-26 21:00:00,41.4,26.7,29.93,West,270,5.8,8.5,56,0.00,,,0.00,WUHU21623XXSP,2013-03-27 01:00:00,
2013-03-26 21:05:00,41.2,27.9,29.93,WNW,292,6.3,11.6,59,0.00,,,0.00,WUHU21623XXSP,2013-03-27 01:05:00,
2013-03-26 21:10:00,40.8,28.0,29.93,West,270,7.4,11.6,60,0.00,,,0.00,WUHU21623XXSP,2013-03-27 01:10:00,
2013-03-26 21:15:00,40.8,28.8,29.93,West,270,10.7,12.1,62,0.00,,,0.00,WUHU21623XXSP,2013-03-27 01:15:00,
2013-03-26 21:20:00,40.8,28.8,29.93,NW,315,13.0,14.3,62,0.00,,,0.00,WUHU21623XXSP,2013-03-27 01:20:00,
2013-03-26 21:25:00,40.6,28.6,29.93,WNW,292,13.6,19.2,62,0.00,,,0.00,WUHU21623XXSP,2013-03-27 01:25:00,
2013-03-26 21:30:00,40.3,28.3,29.93,NW,315,9.8,19.2,62,0.00,,,0.00,WUHU21623XXSP,2013-03-27 01:30:00,
2013-03-26 21:35:00,40.1,28.1,29.94,NW,315,11.0,14.8,62,0.00,,,0.00,WUHU21623XXSP,2013-03-27 01:35:00,
2013-03-26 21:40:00,39.7,28.1,29.94,WNW,292,8.3,13.0,63,0.00,,,0.00,WUHU21623XXSP,2013-03-27 01:40:00,
2013-03-26 21:45:00,39.6,27.9,29.94,WNW,292,7.8,13.0,63,0.00,,,0.00,WUHU21623XXSP,2013-03-27 01:45:00,
2013-03-26 21:50:00,39.2,27.9,29.94,WNW,292,12.1,12.5,64,0.00,,,0.00,WUHU21623XXSP,2013-03-27 01:50:00,
2013-03-26 21:56:00,38.8,27.2,29.94,WNW,292,11.9,13.6,63,0.00,,,0.00,WUHU21623XXSP,2013-03-27 01:56:00,
2013-03-26 22:00:00,38.5,26.9,29.94,NW,315,12.1,17.9,63,0.00,,,0.00,WUHU21623XXSP,2013-03-27 02:00:00,
2013-03-26 22:06:00,38.1,26.6,29.94,WNW,292,8.5,17.9,63,0.00,,,0.00,WUHU21623XXSP,2013-03-27 02:06:00,
2013-03-26 22:11:00,37.8,26.6,29.94,NW,315,9.2,15.9,64,0.00,,,0.00,WUHU21623XXSP,2013-03-27 02:11:00,
2013-03-26 22:16:00,37.4,26.3,29.94,WNW,292,5.4,15.9,64,0.00,,,0.00,WUHU21623XXSP,2013-03-27 02:16:00,
2013-03-26 22:21:00,37.2,26.1,29.94,WNW,292,13.2,13.2,64,0.00,,,0.00,WUHU21623XXSP,2013-03-27 02:21:00,
2013-03-26 22:26:00,37.2,26.1,29.94,WNW,292,8.1,14.3,64,0.00,,,0.00,WUHU21623XXSP,2013-03-27 02:26:00,
2013-03-26 22:31:00,36.7,26.0,29.94,NW,315,7.4,14.3,65,0.00,,,0.00,WUHU21623XXSP,2013-03-27 02:31:00,
2013-03-26 22:36:00,36.5,25.8,29.94,WNW,292,5.6,13.6,65,0.00,,,0.00,WUHU21623XXSP,2013-03-27 02:36:00,
2013-03-26 22:41:00,36.3,26.0,29.94,WNW,292,5.8,10.1,66,0.00,,,0.00,WUHU21623XXSP,2013-03-27 02:41:00,
2013-03-26 22:46:00,36.0,26.0,29.94,WNW,292,5.8,7.6,67,0.00,,,0.00,WUHU21623XXSP,2013-03-27 02:46:00,
2013-03-26 22:51:00,35.8,25.9,29.94,NW,315,6.3,9.2,67,0.00,,,0.00,WUHU21623XXSP,2013-03-27 02:51:00,
2013-03-26 22:56:00,35.4,25.9,29.94,NW,315,7.2,9.8,68,0.00,,,0.00,WUHU21623XXSP,2013-03-27 02:56:00,
2013-03-26 23:01:00,35.2,26.1,29.94,NW,315,3.1,9.8,69,0.00,,,0.00,WUHU21623XXSP,2013-03-27 03:01:00,
2013-03-26 23:06:00,34.9,25.7,29.94,NW,315,7.4,8.5,69,0.00,,,0.00,WUHU21623XXSP,2013-03-27 03:06:00,
2013-03-26 23:11:00,34.9,25.7,29.94,WNW,292,5.4,9.8,69,0.00,,,0.00,WUHU21623XXSP,2013-03-27 03:11:00,
2013-03-26 23:16:00,34.9,26.1,29.94,WNW,292,6.7,9.8,70,0.00,,,0.00,WUHU21623XXSP,2013-03-27 03:16:00,
2013-03-26 23:22:00,34.7,25.9,29.94,WNW,292,6.0,9.4,70,0.00,,,0.00,WUHU21623XXSP,2013-03-27 03:22:00,
2013-03-26 23:26:00,34.3,25.5,29.94,WNW,292,5.4,8.1,70,0.00,,,0.00,WUHU21623XXSP,2013-03-27 03:26:00,
2013-03-26 23:32:00,34.3,25.5,29.94,West,270,5.1,7.6,70,0.00,,,0.00,WUHU21623XXSP,2013-03-27 03:32:00,
2013-03-26 23:37:00,34.2,25.3,29.94,WNW,292,5.4,7.8,70,0.00,,,0.00,WUHU21623XXSP,2013-03-27 03:37:00,
2013-03-26 23:42:00,34.0,25.5,29.94,West,270,4.0,7.8,71,0.00,,,0.00,WUHU21623XXSP,2013-03-27 03:42:00,
2013-03-26 23:47:00,33.6,25.1,29.94,WNW,292,1.6,5.8,71,0.00,,,0.00,WUHU21623XXSP,2013-03-27 03:47:00,
2013-03-26 23:52:00,33.6,25.1,29.94,West,270,5.6,7.6,71,0.00,,,0.00,WUHU21623XXSP,2013-03-27 03:52:00,
2013-03-26 23:57:00,33.6,25.1,29.94,West,270,5.6,7.6,71,0.00,,,0.00,WUHU21623XXSP,2013-03-27 03:57:00,